Regional Weather Roundup
Issued by NWS State College, PA

Home | Current Version | Previous Version | Text Only | Print | Product List | Glossary Off
Versions: 1 2 3 4 5 6 7 8 9 10 11 12 13 14 15 16 17 18 19 20 21 22 23 24 25 26 27 28 29 30 31 32 33 34 35 36 37 38 39 40 41 42 43 44 45 46 47 48 49 50

859
ASUS41 KCTP 241410
RWRCTP

REGIONAL WEATHER ROUNDUP
NATIONAL WEATHER SERVICE STATE COLLEGE PA
900 AM EST FRI NOV 24 2017

Note: "fair" indicates few or no clouds below 12,000 feet with no
significant weather and/or obstructions to visibility.

* = STATION THAT DOES NOT REPORT PRECIPITATION /E.G. RAIN...SNOW...ETC/
    THUNDER OR FOG.

PAZ002>004-007>009-013>016-020>023-029>032-241500-
WESTERN PENNSYLVANIA

CITY           SKY/WX    TMP DP  RH WIND       PRES   REMARKS
ERIE           SUNNY     38  24  57 S14       29.92F
MEADVILLE      SUNNY     33  24  69 S12       29.94S
FRANKLIN*      SUNNY     33  23  66 S9        29.96F
NEW CASTLE     FAIR      33  24  69 VRB5      29.99S
BEAVER COUNTY  NOT AVBL
BUTLER*        SUNNY     33  23  66 S6        30.00F
PITTSBURGH INT SUNNY     31  24  75 S6        29.99F
PITTSBURGH     SUNNY     34  22  61 S7        30.00F
INDIANA*       SUNNY     36  27  69 CALM      30.04F
LATROBE        NOT AVBL
WASHINGTON CO* SUNNY     30  25  81 CALM      30.03F
$$

PAZ004>006-010>012-017>019-024>028-033>037-041-042-045-046-049>053-241500-
CENTRAL PENNSYLVANIA

CITY           SKY/WX    TMP DP  RH WIND       PRES   REMARKS
BRADFORD       SUNNY     31  23  72 SW8       29.93S
DUBOIS         SUNNY     33  21  61 S6        29.96F
CLEARFIELD     SUNNY     30  24  78 S3        30.00F
JOHNSTOWN      SUNNY     34  20  56 SW9       29.98S
ALTOONA        SUNNY     36  23  59 S3        30.02R
STATE COLLEGE  SUNNY     30  23  74 CALM      30.02S
WILLIAMSPORT   SUNNY     33  26  75 CALM      30.04S
SELINSGROVE    SUNNY     30  27  88 CALM      30.07S
FT INDIANTOWN  SUNNY     30  26  86 CALM      30.06S
CAPITAL CITY   SUNNY     33  24  69 CALM      30.07S
HARRISBURG     SUNNY     34  30  85 CALM      30.06F
YORK           SUNNY     33  28  81 CALM      30.06S
$$

PAZ038>040-043-044-047-048-054-055-060>062-067>071-241500-
EASTERN PENNSYLVANIA

CITY           SKY/WX    TMP DP  RH WIND       PRES   REMARKS
SCRANTON       SUNNY     34  24  67 CALM      30.02S
MOUNT POCONO   SUNNY     32  21  64 W3        29.98S
ALLENTOWN      SUNNY     33  24  69 SW3       30.06S
QUAKERTOWN*    SUNNY     34  27  75 CALM      30.06S
READING        SUNNY     33  29  85 CALM      30.06F
LANCASTER      SUNNY     30  27  88 SE3       30.07S FOG
COATESVILLE    SUNNY     37  27  65 CALM      30.06F
POTTSTOWN      SUNNY     32  25  75 CALM      30.08F
BLUE BELL      SUNNY     36  27  69 CALM      30.08F
DOYLESTOWN     SUNNY     33  23  66 CALM      30.05S
WILLOW GROVE   NOT AVBL
NORTH PHILA    SUNNY     39  26  59 W3        30.09S
PHILADELPHIA   SUNNY     37  31  78 SW7       30.09S
$$




USA.gov is the U.S. government's official web portal to all federal, state and local government web resources and services.